一网星座-0059星 (ONEWEB-0059 )

导读

ONEWEB-0059是英国OneWeb项目下的低轨通信卫星,于2020年2月6日发射,属于OneWeb全球卫星互联网星座的首批组网卫星。卫星设计重量仅约150kg,运行于低地球轨道,依托Ku/Ka频段提供通信服务,助力OneWeb实现全球高速低延迟卫星互联网覆盖,目标为偏远区域及企业、政府客户提供互联网接入服务,是OneWeb星座组网的重要组成部分。

基本信息
目录编号:
45162
目录名称:
ONEWEB-0059
国际标识:
2020-008AH
轨道中心:
EARTH
卫星名称:
一网星座-0059星
卫星全名:
一网星座-0059星 (ONEWEB-0059 )
卫星状态:
在轨 (已飞行2409 天)
发射日期:
2020-02-06 UTC
国别 :
英国 (GB)
星等 :
--
该卫星已列入 空间交会检测服务 Space Conjunction Data Service (SCDS) ,当前飞行风险评估等级: 无高风险
轨道信息
数据来源 国际轨道数据 AOE轨道数据
星历时间 2026-09-11T01:27:21+0800
18小时前
查看轨道信息
2026-09-06T06:00:00+0800
5天前
查看轨道信息
半长轴 7599.854km 7599.864km
偏心率 0.0002012 0.0001856
轨道倾角 87.889° 87.888°
近地点辐角 108.593° 106.692°
升交点赤经 19.242° 20.199°
平近点角 251.541° 252.867°
近地点 1220.187km 1220.316km
远地点 1223.247km 1223.138km
周期 109.892分钟 109.893分钟
每日圈数 13.103731 13.103705
详细信息
平衡模式:
三轴稳定
覆盖范围:
全球
运营商:
一网卫星公司
运营商所在国:
英国
制造商(研发单位):
一网卫星公司
制造商所在国:
英国
使用方式:
暂无
卫星简介
OneWeb卫星网络由648颗重约125公斤的微型卫星组成,运行在1200公里的轨道上。 每颗卫星都能够提供至少每秒8千兆位的吞吐量,以使用其高吞吐量的Ku频段有效载荷为家庭和移动平台提供互联网接入。该卫星仍在工作。
2D轨道图
3D轨道图
轨道高度分析图
轨道倾角分析图
轨道综合分析图
查看轨道综合分析图
与全量物体交会距离演化趋势
与全量物体交会风险概率演化趋势